088  
ASUS43 KFGF 201210  
RWRFGF  
PRAIRIE TO PINES WEATHER ROUNDUP  
NATIONAL WEATHER SERVICE EASTERN NORTH DAKOTA/GRAND FORKS ND  
700 AM CDT THU JUL 20 2017  
 
**SATELLITE DATA USED TO AUGMENT SKY COVER AT AUTOMATED STATIONS**  
***** WEATHER ACROSS EASTERN NORTH DAKOTA *****  
 
CITY SKY/WX TMP DP RH WIND PRES REMARKS
 
GRAND FORKS FAIR 60 58 92 CALM 29.98R  
6HR MIN TEMP: 58; 6HR MAX TEMP: 63;  
 
GRAND FRKS AFB FAIR 57 56 96 CALM 30.00R  
DEVILS LAKE FAIR 61 59 93 N7 30.04R  
6HR MIN TEMP: 57; 6HR MAX TEMP: 64;  
 
FARGO FAIR 63 62 97 CALM 29.99R  
WAHPETON ARPT CLOUDY 61 59 94 CALM 30.00S VSB<1/4  

 
 
***** WEATHER ACROSS CENTRAL AND WESTERN NORTH DAKOTA *****  
 
CITY SKY/WX TMP DP RH WIND PRES REMARKS
 
BISMARCK FAIR 63 61 93 E3 30.02S  
6HR MIN TEMP: 61; 6HR MAX TEMP: 71;  
 
MINOT FAIR 59 56 89 N3 30.01R  
6HR MIN TEMP: 58; 6HR MAX TEMP: 71;  
 
JAMESTOWN FAIR 63 61 93 CALM 30.00S  
6HR MIN TEMP: 60; 6HR MAX TEMP: 67;  
 
MINOT AFB CLEAR 61 58 90 E5 30.00R  
GARRISON N/A 64 61 90 E7 30.01R  
WILLISTON N/A N/A N/A N/A MISG 29.96R  
DICKINSON FAIR 67 61 81 SW10 29.99S  
6HR MIN TEMP: 63; 6HR MAX TEMP: 67;  
 
HETTINGER FAIR 65 60 84 VRB3 30.06R  
6HR MIN TEMP: 62; 6HR MAX TEMP: 68;  
 

 
 
***** OTHER AIRPORT OBSERVATIONS IN OUR AREA *****  
 
CITY SKY/WX TMP DP RH WIND PRES REMARKS
 
WALHALLA NOT AVBL  
GRAFTON AIRPOR FAIR 57 57 100 N7 30.02R  
VALLEY CITY AR FAIR 63 63 100 CALM 30.03R  
CANDO NOT AVBL  
CAVALIER APRT FAIR 57 55 94 CALM 30.01R  
GWINNER SUNNY 61 61 100 CALM 30.01R FOG  
SHEYENNE NWR N/A 56 56 100 S3 29.95S  
ROLLA N/A 55 55 100 N3 30.05R  
***** THE ABOVE OBSERVATIONS ARE NON NWS ARE NOT QUALITY  
CONTROLLED AND MAY MIS-REPORT RAIN FOR SNOW...  

 
 
***** WEATHER ACROSS NORTHERN MINNESOTA *****  
 
CITY SKY/WX TMP DP RH WIND PRES REMARKS
 
FLAG ISLAND FAIR 63 57 82 W8 29.97R  
WARROAD FAIR 59 55 88 NW5 30.00R  
ROSEAU FAIR 61 54 77 CALM 30.00R  
HALLOCK FAIR 55 54 94 N6 30.00R  
THF RVR FALLS FAIR 59 58 96 CALM 30.02R  
6HR MIN TEMP: 59; 6HR MAX TEMP: 62;  
 
BAUDETTE FAIR 60 60 100 W6 29.97R FOG  
6HR MIN TEMP: 59; 6HR MAX TEMP: 67;  
 
WASKISH CLOUDY 64 63 94 NW8 29.98R  
CROOKSTON FAIR 57 57 100 N3 30.01R  
STEPHEN NDAWN N/A 55 54 94 NW2 N/A  
GREENBUSH NDAW N/A 55 55 100 SW2 N/A  

 
***** WEATHER ACROSS CENTRAL AND WEST MINNESOTA *****  
 
CITY SKY/WX TMP DP RH WIND PRES REMARKS
 
FOSSTON FOG 55 54 94 CALM 30.02R VSB 1  
BEMIDJI FAIR 62 62 98 NW5 30.00R  
PARK RAPIDS FOG 61 60 97 CALM 30.01R VSB 1/4  
6HR MIN TEMP: 57; 6HR MAX TEMP: 66;  
 
ELBOW LAKE FOG 62 62 100 CALM 30.01S VSB 1/4  
6HR MIN TEMP: 58; 6HR MAX TEMP: 67;  
 
WADENA CLOUDY 59 59 100 CALM 30.01R VSB<1/4  
DETROIT LAKES FOG 63 61 94 CALM 30.02R VSB 1/4  
MOORHEAD FOG 59 57 94 CALM 30.00R VSB 1/2  
FERGUS FALLS FOG 64 64 100 CALM 30.01R VSB<1/4  
MORRIS MN FOG 63 61 94 CALM 30.00S VSB 1/4  
STAPLES PTSUNNY 57 57 100 CALM 30.01R FOG  

 
***** WEATHER ELSEWHERE ACROSS MINNESOTA *****  
 
CITY SKY/WX TMP DP RH WIND PRES REMARKS
 
DULUTH PTSUNNY 64 63 96 NW8 29.96R  
6HR MIN TEMP: 57; 6HR MAX TEMP: 64;  
 
INTRNTL FALLS PTSUNNY 62 60 93 W5 29.96R FOG  
6HR MIN TEMP: 52; 6HR MAX TEMP: 64;  
 
ELY FAIR 59 59 100 CALM 29.95R  
CLOQUET FAIR 63 57 82 W6 29.98R  
WHEATON FAIR 63 63 100 CALM 30.02R FOG  
BRAINERD FAIR 61 60 97 SW5 30.01R FOG  
6HR MIN TEMP: 57; 6HR MAX TEMP: 61;  
 
HIBBING FAIR 55 55 100 W5 29.97R  
6HR MIN TEMP: 49; 6HR MAX TEMP: 55;  
 
ALEXANDRIA FAIR 63 62 97 W3 30.03R  
6HR MIN TEMP: 59; 6HR MAX TEMP: 65;  
 
SAINT CLOUD FAIR 62 62 100 CALM 30.00R FOG  
6HR MIN TEMP: 59; 6HR MAX TEMP: 65;  
 
MINNEAPOLIS CLOUDY 70 67 90 S3 30.00R FOG  
6HR MIN TEMP: 68; 6HR MAX TEMP: 71;  
 

 
 
***** WEATHER ACROSS SOUTH DAKOTA *****  
 
CITY SKY/WX TMP DP RH WIND PRES REMARKS
 
SIOUX FALLS CLOUDY 71 69 93 N3 30.00R  
6HR MIN TEMP: 70; 6HR MAX TEMP: 73;  
 
BROOKINGS FAIR 69 67 93 NE6 30.01F  
WATERTOWN FOG 62 62 100 CALM 30.02R VSB<1/4  
6HR MIN TEMP: 61; 6HR MAX TEMP: 70;  
 
HURON FAIR 70 69 97 CALM 30.00R FOG  
6HR MIN TEMP: 69; 6HR MAX TEMP: 74;  
 
SISSETON N/A 62 61 96 CALM 30.00R  
ABERDEEN FOG 63 63 100 CALM 30.02R VSB<1/4  
6HR MIN TEMP: 60; 6HR MAX TEMP: 70;  
 
MITCHELL FAIR 72 71 97 CALM 30.00S  
PIERRE FAIR 71 68 90 E3 30.01R  
6HR MIN TEMP: 70; 6HR MAX TEMP: 76;  
 
MOBRIDGE FOG 68 67 96 VRB5 29.99R VSB<1/4  
RAPID CITY FAIR 66 62 87 NW6 30.07F  
6HR MIN TEMP: 65; 6HR MAX TEMP: 74;  
 

 
 
***** SOME WEATHER IN NEARBY STATES *****  
 
CITY SKY/WX TMP DP RH WIND PRES REMARKS
 
GLASGOW MT NOT AVBL  
GREAT FALLS MT FAIR 55 35 47 SW7 29.96R  
6HR MIN TEMP: 54; 6HR MAX TEMP: 74;  
 
CHEYENNE WY MOCLDY 64 53 67 NW8 30.28R  
6HR MIN TEMP: 63; 6HR MAX TEMP: 69;  
 
SCOTTSBLUFF NE FAIR 68 64 87 NW3 30.15R  
6HR MIN TEMP: 68; 6HR MAX TEMP: 71; 6HR PCP: 0.03;  
 
OMAHA NE MOCLDY 81 69 67 S7 29.95R  
6HR MIN TEMP: 80; 6HR MAX TEMP: 86;  
 
DES MOINES IA MOCLDY 81 71 71 SW15 29.93F  
6HR MIN TEMP: 80; 6HR MAX TEMP: 84;  
 
DAVENPORT IA FAIR 75 70 84 NE20 30.04R  
6HR MIN TEMP: 73; 6HR MAX TEMP: 79;  
 
CHICAGO IL TSTM 70 68 93 SE7 30.04F  
6HR MIN TEMP: 70; 6HR MAX TEMP: 71; 6HR PCP: 0.92;  
 
EAU CLAIRE WI FOG 68 68 100 CALM 29.99S VSB 1/4  
6HR MIN TEMP: 65; 6HR MAX TEMP: 69; 6HR PCP: 0.03;  
 
LA CROSSE WI CLOUDY 71 68 90 S7 29.97S  
6HR MIN TEMP: 70; 6HR MAX TEMP: 72; 6HR PCP: 2.36;  
 

 
 
***** SOME NATIONAL WEATHER *****  
 
CITY SKY/WX TMP DP RH WIND PRES REMARKS
 
LA GUARDIA NY PTSUNNY 81 73 76 E5 29.97R  
6HR MIN TEMP: 77; 6HR MAX TEMP: 85;  
 
RALEIGH NC FAIR 77 73 87 SW3 30.08R  
6HR MIN TEMP: 71; 6HR MAX TEMP: 77;  
 
ATLANTA GA FAIR 76 71 85 NW7 30.12R  
6HR MIN TEMP: 73; 6HR MAX TEMP: 78;  
 
NEW ORLEANS LA FAIR 78 77 96 CALM 30.11R  
6HR MIN TEMP: 76; 6HR MAX TEMP: 79;  
 
OKLAHOMA CITY FAIR 75 69 81 S9 30.10R  
6HR MIN TEMP: 73; 6HR MAX TEMP: 80;  
 
ALBUQUERQUE NM MOCLDY 69 52 54 E5 30.29S  
6HR MIN TEMP: 67; 6HR MAX TEMP: 71;  
 
SALT LAKE CITY MOCLDY 78 57 48 SE14 30.06R  
6HR MIN TEMP: 78; 6HR MAX TEMP: 80;  
 
LOS ANGELES CA MOCLDY 69 65 86 NW3 29.97S  
6HR MIN TEMP: 67; 6HR MAX TEMP: 69;  
 
BOISE ID FAIR 62 38 40 SW3 29.97R  
6HR MIN TEMP: 62; 6HR M  
 
CLICK HERE TO GO TO PREVIOUS BULLETINS.

The Nexlab ND Page
The Nexlab MN Page Main Text Page